Terug naar catalogus

STARLINK-32372

ActiefCommunicatieVLEO
NORAD 61960·PAYLOAD·🇺🇸 United States

Gelanceerd Nov 14, 2024 vanaf Cape Canaveral Space Force Station

Loading…

Volgende Passages (komende 24 uur)

TLE

VersSource: CelesTrak SupGP

Epoch: Sep 15, 2026, 02:39 UTC

1 61960C 24210B   26258.11090278 -.00039769  00000+0 -14407-2 0  2583
2 61960  43.0007 189.7773 0001051 270.2065  64.5447 15.27593120    15

Volg STARLINK-32372 in realtime met AllMySat

Download on the App Store